User: anonymous
Location: Unspecified
(0.0000°N, 0.0000°E)
Time: 11:52:22
(UTC+02:00)
Language:

Cosmos 1437 - Orbit

View from above orbital plane
View from above orbital plane
View from above satellite
View from above satellite

Ground track
Ground track

The orbit data is extracted from the following two-line orbital elements,

1 13770U 83003A   14203.52432775  .00002256  00000-0  73319-4 0  6042
2 13770 081.1661 353.9310 0010588 359.9562 064.4829 15.31427876722983
Epoch (UTC): 22 July 2014 12:35:01
Eccentricity: 0.0010588
inclination: 81.1661°
perigee height: 464 km
apogee height: 479 km
right ascension of ascending node: 353.9310°
argument of perigee: 359.9562°
revolutions per day: 15.31427876
mean anomaly at epoch: 64.4829°
orbit number at epoch: 72298

The dashed part of the orbit path shows where the satellite is in the earth's shadow,  

DLR